Location: Beranovka
(49.9415°N, 12.8435°E)
Time: 21:35:35
(UTC+00:00)

Meteor 1-4 Rocket - Pass Details

Date: 10 August 2020
Orbit: 449 x 502 km, 81.2° (Epoch: 22 September)

Event Time Altitude Azimuth Distance (km) Brightness Sun altitude
Rises 19:19:36 0° 354° (N) 2,490 6.8 -7.0°
Reaches altitude 10° 19:21:47 10° 2° (N) 1,604 5.7 -7.3°
Maximum altitude 19:25:05 39° 73° (ENE) 693 3.1 -7.8°
Drops below altitude 10° 19:28:21 10° 144° (SE) 1,579 4.6 -8.2°
Enters shadow 19:28:22 10° 144° (SE) 1,588 4.6 -8.2°
